• In Belarus
  • List of Countries
  • For 7 days
  • Water Temperature
  • Satellite Maps
  • Weather Map
  • Weather Widgets
  • user-avatar
    Login

    Hourly Weather Ganja

    Today, 22 July, Monday

    Time Temperature Precipitation Wind Pressure Humidity
    00:00 +28°C° 0 mm 3 mps 724 mmHg 56%
    01:00 +28°C° 0 mm 3 mps 723 mmHg 58%
    02:00 +27°C° 0 mm 2 mps 723 mmHg 59%
    03:00 +27°C° 0 mm 1 mps 723 mmHg 62%
    04:00 +27°C° 0 mm 1 mps 723 mmHg 63%
    05:00 +27°C° 0 mm 1 mps 723 mmHg 63%
    06:00 +27°C° 0 mm 1 mps 723 mmHg 63%
    07:00 +28°C° 0 mm 1 mps 722 mmHg 61%
    08:00 +30°C° 0 mm 2 mps 722 mmHg 58%
    09:00 +31°C° 0 mm 2 mps 722 mmHg 56%
    10:00 +32°C° 0 mm 2 mps 722 mmHg 52%
    11:00 +35°C° 0 mm 3 mps 722 mmHg 48%
    12:00 +36°C° 0 mm 3 mps 722 mmHg 44%
    13:00 +37°C° 0 mm 4 mps 721 mmHg 42%
    14:00 +37°C° 0 mm 5 mps 721 mmHg 40%
    15:00 +39°C° 0 mm 5 mps 721 mmHg 37%
    16:00 +37°C° 0 mm 5 mps 721 mmHg 39%
    17:00 +37°C° 0 mm 5 mps 721 mmHg 41%
    18:00 +36°C° 0 mm 5 mps 721 mmHg 42%
    19:00 +35°C° 0 mm 5 mps 721 mmHg 46%
    20:00 +34°C° 0 mm 5 mps 722 mmHg 49%
    21:00 +32°C° 0 mm 5 mps 722 mmHg 53%
    22:00 +30°C° 0 mm 5 mps 722 mmHg 55%
    23:00 +29°C° 0 mm 4 mps 722 mmHg 58%

    Tomorrow, 23 July, Tuesday

    Time Temperature Precipitation Wind Pressure Humidity
    00:00 +28°C° 0 mm 4 mps 722 mmHg 60%
    01:00 +28°C° 0 mm 3 mps 722 mmHg 62%
    02:00 +27°C° 0 mm 2 mps 722 mmHg 64%
    03:00 +27°C° 0 mm 2 mps 722 mmHg 66%
    04:00 +27°C° 0 mm 2 mps 722 mmHg 66%
    05:00 +27°C° 0 mm 2 mps 722 mmHg 66%
    06:00 +27°C° 0 mm 2 mps 722 mmHg 66%
    07:00 +28°C° 0 mm 2 mps 722 mmHg 61%
    08:00 +30°C° 0 mm 2 mps 722 mmHg 57%
    09:00 +31°C° 0 mm 3 mps 722 mmHg 52%
    10:00 +33°C° 0 mm 4 mps 722 mmHg 48%
    11:00 +35°C° 0 mm 4 mps 722 mmHg 43%
    12:00 +36°C° 0 mm 5 mps 721 mmHg 38%
    13:00 +38°C° 0 mm 6 mps 721 mmHg 37%
    14:00 +38°C° 0 mm 6 mps 720 mmHg 36%
    15:00 +39°C° 0 mm 7 mps 720 mmHg 34%
    16:00 +38°C° 0 mm 7 mps 720 mmHg 36%
    17:00 +36°C° 0 mm 6 mps 720 mmHg 39%
    18:00 +35°C° 0 mm 6 mps 720 mmHg 41%
    19:00 +34°C° 0.1 mm 6 mps 720 mmHg 45%
    20:00 +32°C° 0.1 mm 5 mps 720 mmHg 49%
    21:00 +30°C° 0.1 mm 4 mps 721 mmHg 53%
    22:00 +29°C° 0 mm 4 mps 721 mmHg 54%
    23:00 +28°C° 0 mm 4 mps 721 mmHg 56%

    Day after tomorrow, 24 July, Wednesday

    Time Temperature Precipitation Wind Pressure Humidity
    00:00 +28°C° 0 mm 4 mps 721 mmHg 57%
    01:00 +27°C° 0 mm 3 mps 721 mmHg 59%
    02:00 +27°C° 0 mm 3 mps 720 mmHg 61%
    03:00 +26°C° 0 mm 2 mps 720 mmHg 63%
    04:00 +26°C° 0 mm 2 mps 720 mmHg 64%
    05:00 +26°C° 0 mm 1 mps 720 mmHg 65%
    06:00 +26°C° 0 mm 1 mps 721 mmHg 65%
    07:00 +27°C° 0 mm 1 mps 720 mmHg 61%
    08:00 +28°C° 0 mm 2 mps 720 mmHg 57%
    09:00 +30°C° 0 mm 2 mps 720 mmHg 53%
    10:00 +31°C° 0 mm 2 mps 720 mmHg 50%
    11:00 +32°C° 0 mm 2 mps 720 mmHg 46%
    12:00 +34°C° 0 mm 2 mps 719 mmHg 43%
    13:00 +35°C° 0 mm 2 mps 719 mmHg 41%
    14:00 +36°C° 0 mm 2 mps 719 mmHg 40%
    15:00 +36°C° 0 mm 2 mps 718 mmHg 38%
    16:00 +36°C° 0 mm 2 mps 718 mmHg 39%
    17:00 +35°C° 0 mm 1 mps 719 mmHg 39%
    18:00 +35°C° 0 mm 1 mps 719 mmHg 39%
    19:00 +34°C° 0 mm 1 mps 719 mmHg 42%
    20:00 +32°C° 0 mm 2 mps 720 mmHg 45%
    21:00 +31°C° 0 mm 2 mps 720 mmHg 48%
    22:00 +30°C° 0 mm 2 mps 720 mmHg 51%
    23:00 +29°C° 0 mm 2 mps 720 mmHg 53%

    25 July, Thursday

    Time Temperature Precipitation Wind Pressure Humidity
    00:00 +28°C° 0 mm 3 mps 721 mmHg 56%
    01:00 +28°C° 0 mm 3 mps 721 mmHg 58%
    02:00 +27°C° 0 mm 2 mps 720 mmHg 61%
    03:00 +26°C° 0 mm 2 mps 720 mmHg 64%
    04:00 +27°C° 0 mm 2 mps 721 mmHg 63%
    05:00 +27°C° 0 mm 3 mps 721 mmHg 62%
    06:00 +27°C° 0 mm 3 mps 721 mmHg 61%
    07:00 +28°C° 0 mm 4 mps 721 mmHg 58%
    08:00 +30°C° 0 mm 4 mps 721 mmHg 55%
    09:00 +32°C° 0 mm 5 mps 721 mmHg 52%
    10:00 +33°C° 0 mm 4 mps 721 mmHg 48%
    11:00 +35°C° 0 mm 4 mps 721 mmHg 45%
    12:00 +36°C° 0 mm 4 mps 720 mmHg 41%
    13:00 +37°C° 0 mm 3 mps 720 mmHg 38%
    14:00 +37°C° 0 mm 3 mps 720 mmHg 35%
    15:00 +38°C° 0 mm 3 mps 719 mmHg 33%
    16:00 +38°C° 0 mm 3 mps 719 mmHg 33%
    17:00 +37°C° 0 mm 3 mps 719 mmHg 34%
    18:00 +37°C° 0 mm 2 mps 719 mmHg 35%
    19:00 +35°C° 0 mm 3 mps 720 mmHg 39%
    20:00 +33°C° 0 mm 4 mps 720 mmHg 43%
    21:00 +30°C° 0 mm 5 mps 721 mmHg 47%
    22:00 +29°C° 0 mm 4 mps 721 mmHg 50%
    23:00 +27°C° 0 mm 3 mps 721 mmHg 53%

    26 July, Friday

    Time Temperature Precipitation Wind Pressure Humidity
    00:00 +26°C° 0 mm 2 mps 721 mmHg 57%
    01:00 +26°C° 0 mm 2 mps 721 mmHg 58%
    02:00 +25°C° 0 mm 2 mps 721 mmHg 59%
    03:00 +25°C° 0 mm 2 mps 721 mmHg 60%
    04:00 +25°C° 0 mm 3 mps 721 mmHg 60%
    05:00 +25°C° 0 mm 3 mps 721 mmHg 61%
    06:00 +25°C° 0 mm 4 mps 721 mmHg 61%
    07:00 +27°C° 0 mm 4 mps 721 mmHg 57%
    08:00 +28°C° 0 mm 4 mps 721 mmHg 54%
    09:00 +29°C° 0 mm 4 mps 721 mmHg 51%
    10:00 +30°C° 0 mm 3 mps 720 mmHg 48%
    11:00 +31°C° 0 mm 3 mps 720 mmHg 45%
    12:00 +32°C° 0 mm 2 mps 719 mmHg 42%
    13:00 +34°C° 0 mm 3 mps 719 mmHg 40%
    14:00 +35°C° 0 mm 3 mps 719 mmHg 38%
    15:00 +36°C° 0 mm 4 mps 718 mmHg 36%
    16:00 +36°C° 0.1 mm 3 mps 718 mmHg 38%
    17:00 +35°C° 0.1 mm 3 mps 718 mmHg 39%
    18:00 +35°C° 0.1 mm 3 mps 718 mmHg 41%
    19:00 +33°C° 0.1 mm 3 mps 718 mmHg 45%
    20:00 +30°C° 0.1 mm 4 mps 719 mmHg 49%
    21:00 +29°C° 0.1 mm 4 mps 719 mmHg 53%
    22:00 +27°C° 0 mm 4 mps 719 mmHg 59%
    23:00 +26°C° 0 mm 4 mps 719 mmHg 64%

    27 July, Saturday

    Time Temperature Precipitation Wind Pressure Humidity
    00:00 +25°C° 0 mm 4 mps 719 mmHg 69%
    01:00 +24°C° 0 mm 3 mps 719 mmHg 69%
    02:00 +24°C° 0 mm 3 mps 719 mmHg 70%
    03:00 +24°C° 0 mm 3 mps 718 mmHg 71%
    04:00 +24°C° 0 mm 3 mps 718 mmHg 69%
    05:00 +25°C° 0 mm 3 mps 718 mmHg 67%
    06:00 +25°C° 0 mm 3 mps 718 mmHg 65%
    07:00 +26°C° 0 mm 4 mps 718 mmHg 61%
    08:00 +27°C° 0 mm 4 mps 718 mmHg 57%
    09:00 +28°C° 0 mm 5 mps 718 mmHg 54%
    10:00 +29°C° 0 mm 5 mps 718 mmHg 51%
    11:00 +30°C° 0 mm 4 mps 717 mmHg 48%
    12:00 +32°C° 0 mm 4 mps 717 mmHg 46%
    13:00 +32°C° 0.1 mm 4 mps 717 mmHg 45%
    14:00 +33°C° 0.1 mm 4 mps 716 mmHg 44%
    15:00 +33°C° 0.1 mm 4 mps 716 mmHg 43%
    16:00 +32°C° 0.5 mm 4 mps 716 mmHg 46%
    17:00 +30°C° 0.5 mm 4 mps 716 mmHg 48%
    18:00 +30°C° 0.5 mm 4 mps 716 mmHg 51%
    19:00 +28°C° 0.9 mm 4 mps 716 mmHg 54%
    20:00 +27°C° 0.9 mm 4 mps 717 mmHg 58%
    21:00 +26°C° 0.9 mm 4 mps 718 mmHg 61%
    22:00 +26°C° 0.3 mm 4 mps 718 mmHg 61%
    23:00 +25°C° 0.3 mm 4 mps 718 mmHg 62%
    Show more